Time,TemperatureF,DewpointF,PressureIn,WindDirection,WindDirectionDegrees,WindSpeedMPH,WindSpeedGustMPH,Humidity,HourlyPrecipIn,Conditions,Clouds,dailyrainin,SoftwareType,DateUTC
2013-04-20 00:00:00,33.6,8.2,29.62,WSW,247,6.9,6.9,34,0.00,CLR,,0.00,WeatherDisplay:10.37,2013-04-20 04:00:00,
2013-04-20 00:01:00,33.6,8.2,29.62,WSW,247,6.9,6.9,34,0.00,CLR,,0.00,WeatherDisplay:10.37,2013-04-20 04:01:00,
2013-04-20 00:06:00,33.6,8.2,29.61,WNW,292,6.9,6.9,34,0.00,CLR,,0.00,WeatherDisplay:10.37,2013-04-20 04:06:00,
2013-04-20 00:11:00,33.4,8.0,29.61,WNW,292,5.9,5.9,34,0.00,CLR,,0.00,WeatherDisplay:10.37,2013-04-20 04:11:00,
2013-04-20 00:16:00,33.4,8.0,29.60,SW,225,5.9,5.9,34,0.00,CLR,,0.00,WeatherDisplay:10.37,2013-04-20 04:16:00,
2013-04-20 00:21:00,33.4,8.0,29.61,WNW,292,5.9,5.9,34,0.00,CLR,,0.00,WeatherDisplay:10.37,2013-04-20 04:21:00,
2013-04-20 00:26:00,33.3,7.9,29.62,West,270,6.1,6.1,34,0.00,CLR,,0.00,WeatherDisplay:10.37,2013-04-20 04:26:00,
2013-04-20 00:31:00,33.3,7.9,29.61,WNW,292,6.1,6.1,34,0.00,CLR,,0.00,WeatherDisplay:10.37,2013-04-20 04:31:00,
2013-04-20 00:36:00,33.4,8.0,29.62,West,270,6.1,6.1,34,0.00,CLR,,0.00,WeatherDisplay:10.37,2013-04-20 04:36:00,
2013-04-20 00:41:00,33.4,8.0,29.62,West,270,6.1,6.1,34,0.00,CLR,,0.00,WeatherDisplay:10.37,2013-04-20 04:41:00,
2013-04-20 00:46:00,33.4,8.0,29.56,West,270,6.1,6.1,34,0.00,CLR,,0.00,WeatherDisplay:10.37,2013-04-20 04:46:00,
2013-04-20 00:51:00,33.4,8.0,29.57,SW,225,6.1,6.1,34,0.00,CLR,,0.00,WeatherDisplay:10.37,2013-04-20 04:51:00,
2013-04-20 00:56:00,33.4,8.0,29.58,West,270,6.1,6.1,34,0.00,CLR,,0.00,WeatherDisplay:10.37,2013-04-20 04:56:00,
2013-04-20 01:01:00,33.4,8.0,29.58,West,270,6.1,6.1,34,0.00,CLR,,0.00,WeatherDisplay:10.37,2013-04-20 05:01:00,
2013-04-20 01:06:00,33.4,7.4,29.57,WSW,247,7.1,7.1,33,0.00,CLR,,0.00,WeatherDisplay:10.37,2013-04-20 05:06:00,
2013-04-20 01:11:00,33.4,7.4,29.58,WSW,247,5.8,5.8,33,0.00,CLR,,0.00,WeatherDisplay:10.37,2013-04-20 05:11:00,
2013-04-20 01:16:00,33.6,7.5,29.63,WSW,247,5.8,5.8,33,0.00,CLR,,0.00,WeatherDisplay:10.37,2013-04-20 05:16:00,
2013-04-20 01:21:00,33.6,7.5,29.63,NW,315,6.1,6.1,33,0.00,CLR,,0.00,WeatherDisplay:10.37,2013-04-20 05:21:00,
2013-04-20 01:26:00,33.6,7.5,29.63,WNW,292,6.1,6.1,33,0.00,CLR,,0.00,WeatherDisplay:10.37,2013-04-20 05:26:00,
2013-04-20 01:31:00,33.6,7.5,29.63,WSW,247,6.1,6.1,33,0.00,CLR,,0.00,WeatherDisplay:10.37,2013-04-20 05:31:00,
2013-04-20 01:36:00,33.4,7.4,29.63,SW,225,6.9,6.9,33,0.00,CLR,,0.00,WeatherDisplay:10.37,2013-04-20 05:36:00,
2013-04-20 01:41:00,33.4,7.4,29.64,West,270,6.9,6.9,33,0.00,CLR,,0.00,WeatherDisplay:10.37,2013-04-20 05:41:00,
2013-04-20 01:46:00,33.4,7.4,29.65,WNW,292,8.1,8.1,33,0.00,CLR,,0.00,WeatherDisplay:10.37,2013-04-20 05:46:00,
2013-04-20 01:51:00,33.4,7.4,29.65,West,270,8.1,8.1,33,0.00,CLR,,0.00,WeatherDisplay:10.37,2013-04-20 05:51:00,
2013-04-20 01:56:00,33.4,7.4,29.60,NW,315,8.1,8.1,33,0.00,CLR,,0.00,WeatherDisplay:10.37,2013-04-20 05:56:00,
2013-04-20 02:01:00,33.6,7.5,29.66,WSW,247,8.1,8.1,33,0.00,CLR,,0.00,WeatherDisplay:10.37,2013-04-20 06:01:00,
2013-04-20 02:06:00,33.4,7.4,29.65,WSW,247,8.1,8.1,33,0.00,CLR,,0.00,WeatherDisplay:10.37,2013-04-20 06:06:00,
2013-04-20 02:11:00,33.4,7.4,29.65,WNW,292,8.1,8.1,33,0.00,CLR,,0.00,WeatherDisplay:10.37,2013-04-20 06:11:00,
2013-04-20 02:16:00,33.4,7.4,29.65,WNW,292,8.1,8.1,33,0.00,CLR,,0.00,WeatherDisplay:10.37,2013-04-20 06:16:00,
2013-04-20 02:21:00,33.3,7.2,29.65,WNW,292,8.1,8.1,33,0.00,CLR,,0.00,WeatherDisplay:10.37,2013-04-20 06:21:00,
2013-04-20 02:26:00,33.3,7.2,29.65,WNW,292,8.1,8.1,33,0.00,CLR,,0.00,WeatherDisplay:10.37,2013-04-20 06:26:00,
2013-04-20 02:31:00,33.3,7.2,29.66,WSW,247,8.1,8.1,33,0.00,CLR,,0.00,WeatherDisplay:10.37,2013-04-20 06:31:00,
2013-04-20 02:36:00,33.3,7.2,29.67,West,270,8.1,8.1,33,0.00,CLR,,0.00,WeatherDisplay:10.37,2013-04-20 06:36:00,
2013-04-20 02:41:00,33.1,7.1,29.66,West,270,8.1,8.1,33,0.00,CLR,,0.00,WeatherDisplay:10.37,2013-04-20 06:41:00,
2013-04-20 02:46:00,33.1,7.1,29.61,West,270,8.1,8.1,33,0.00,CLR,,0.00,WeatherDisplay:10.37,2013-04-20 06:46:00,
2013-04-20 02:51:00,33.1,7.1,29.61,SW,225,8.1,8.1,33,0.00,CLR,,0.00,WeatherDisplay:10.37,2013-04-20 06:51:00,
2013-04-20 02:56:00,32.9,6.9,29.62,WSW,247,8.1,8.1,33,0.00,CLR,,0.00,WeatherDisplay:10.37,2013-04-20 06:56:00,
2013-04-20 03:01:00,32.7,6.7,29.62,WSW,247,8.1,8.1,33,0.00,CLR,,0.00,WeatherDisplay:10.37,2013-04-20 07:01:00,
2013-04-20 03:06:00,32.9,6.9,29.63,WNW,292,8.1,8.1,33,0.00,CLR,,0.00,WeatherDisplay:10.37,2013-04-20 07:06:00,
2013-04-20 03:11:00,32.9,6.9,29.64,West,270,8.1,8.1,33,0.00,CLR,,0.00,WeatherDisplay:10.37,2013-04-20 07:11:00,
2013-04-20 03:16:00,32.5,6.6,29.65,WSW,247,8.1,8.1,33,0.00,CLR,,0.00,WeatherDisplay:10.37,2013-04-20 07:16:00,
2013-04-20 03:21:00,32.0,6.1,29.65,WNW,292,10.9,10.9,33,0.00,CLR,,0.00,WeatherDisplay:10.37,2013-04-20 07:21:00,
2013-04-20 03:26:00,32.0,6.1,29.66,NW,315,10.9,10.9,33,0.00,CLR,,0.00,WeatherDisplay:10.37,2013-04-20 07:26:00,
2013-04-20 03:31:00,31.8,5.9,29.66,WNW,292,10.9,10.9,33,0.00,CLR,,0.00,WeatherDisplay:10.37,2013-04-20 07:31:00,
2013-04-20 03:36:00,31.8,5.9,29.67,NW,315,10.9,10.9,33,0.00,CLR,,0.00,WeatherDisplay:10.37,2013-04-20 07:36:00,
2013-04-20 03:41:00,31.8,5.9,29.67,WSW,247,10.9,10.9,33,0.00,CLR,,0.00,WeatherDisplay:10.37,2013-04-20 07:41:00,
2013-04-20 03:46:00,31.8,5.9,29.68,West,270,10.9,10.9,33,0.00,CLR,,0.00,WeatherDisplay:10.37,2013-04-20 07:46:00,
2013-04-20 03:51:00,31.6,5.8,29.68,WNW,292,10.9,10.9,33,0.00,CLR,,0.00,WeatherDisplay:10.37,2013-04-20 07:51:00,
2013-04-20 03:56:00,31.6,5.8,29.68,SW,225,10.9,10.9,33,0.00,CLR,,0.00,WeatherDisplay:10.37,2013-04-20 07:56:00,
2013-04-20 04:01:00,31.5,5.6,29.68,NW,315,10.9,10.9,33,0.00,CLR,,0.00,WeatherDisplay:10.37,2013-04-20 08:01:00,
2013-04-20 04:06:00,31.3,4.8,29.67,WNW,292,10.4,10.4,32,0.00,CLR,,0.00,WeatherDisplay:10.37,2013-04-20 08:06:00,
2013-04-20 04:11:00,31.1,4.6,29.68,WNW,292,5.8,5.8,32,0.00,CLR,,0.00,WeatherDisplay:10.37,2013-04-20 08:11:00,
2013-04-20 04:16:00,31.1,4.6,29.67,NNW,337,5.8,5.8,32,0.00,CLR,,0.00,WeatherDisplay:10.37,2013-04-20 08:16:00,
2013-04-20 04:21:00,30.9,4.5,29.74,NNW,337,5.8,5.8,32,0.00,CLR,,0.00,WeatherDisplay:10.37,2013-04-20 08:21:00,
2013-04-20 04:26:00,30.7,4.3,29.73,WNW,292,5.8,5.8,32,0.00,CLR,,0.00,WeatherDisplay:10.37,2013-04-20 08:26:00,
2013-04-20 04:31:00,30.6,4.1,29.73,NNW,337,5.8,5.8,32,0.00,CLR,,0.00,WeatherDisplay:10.37,2013-04-20 08:31:00,
2013-04-20 04:36:00,30.4,4.0,29.73,West,270,6.1,6.1,32,0.00,CLR,,0.00,WeatherDisplay:10.37,2013-04-20 08:36:00,
2013-04-20 04:41:00,30.2,3.8,29.74,WNW,292,6.1,6.1,32,0.00,CLR,,0.00,WeatherDisplay:10.37,2013-04-20 08:41:00,
2013-04-20 04:46:00,29.8,3.5,29.75,West,270,6.1,6.1,32,0.00,CLR,,0.00,WeatherDisplay:10.37,2013-04-20 08:46:00,
2013-04-20 04:51:00,29.8,3.5,29.75,WSW,247,6.5,6.5,32,0.00,CLR,,0.00,WeatherDisplay:10.37,2013-04-20 08:51:00,
2013-04-20 04:56:00,29.7,3.4,29.71,NW,315,6.9,6.9,32,0.00,CLR,,0.00,WeatherDisplay:10.37,2013-04-20 08:56:00,
2013-04-20 05:01:00,29.5,3.2,29.69,West,270,7.3,7.3,32,0.00,CLR,,0.00,WeatherDisplay:10.37,2013-04-20 09:01:00,
2013-04-20 05:06:00,29.3,3.0,29.71,West,270,11.6,11.6,32,0.00,CLR,,0.00,WeatherDisplay:10.37,2013-04-20 09:06:00,
2013-04-20 05:11:00,29.1,2.9,29.72,WSW,247,9.2,9.2,32,0.00,CLR,,0.00,WeatherDisplay:10.37,2013-04-20 09:11:00,
2013-04-20 05:16:00,29.1,2.9,29.73,West,270,9.2,9.2,32,0.00,CLR,,0.00,WeatherDisplay:10.37,2013-04-20 09:16:00,
2013-04-20 05:21:00,28.9,2.7,29.73,WNW,292,9.2,9.2,32,0.00,CLR,,0.00,WeatherDisplay:10.37,2013-04-20 09:21:00,
2013-04-20 05:26:00,28.9,2.7,29.74,WNW,292,9.2,9.2,32,0.00,CLR,,0.00,WeatherDisplay:10.37,2013-04-20 09:26:00,
2013-04-20 05:31:00,28.8,2.6,29.74,WNW,292,9.2,9.2,32,0.00,CLR,,0.00,WeatherDisplay:10.37,2013-04-20 09:31:00,
2013-04-20 05:36:00,28.8,2.6,29.75,WNW,292,10.4,10.4,32,0.00,CLR,,0.00,WeatherDisplay:10.37,2013-04-20 09:36:00,
2013-04-20 05:41:00,28.6,2.4,29.75,West,270,10.4,10.4,32,0.00,CLR,,0.00,WeatherDisplay:10.37,2013-04-20 09:41:00,
2013-04-20 05:46:00,28.6,2.4,29.75,NW,315,10.4,10.4,32,0.00,CLR,,0.00,WeatherDisplay:10.37,2013-04-20 09:46:00,
2013-04-20 05:51:00,28.6,2.4,29.77,WNW,292,10.4,10.4,32,0.00,CLR,,0.00,WeatherDisplay:10.37,2013-04-20 09:51:00,
2013-04-20 05:56:00,28.4,1.6,29.77,West,270,10.4,10.4,31,0.00,CLR,,0.00,WeatherDisplay:10.37,2013-04-20 09:56:00,
2013-04-20 06:01:00,28.4,2.2,29.77,NNW,337,10.4,10.4,32,0.00,CLR,,0.00,WeatherDisplay:10.37,2013-04-20 10:01:00,
2013-04-20 06:06:00,28.2,1.4,29.77,NNW,337,10.4,10.4,31,0.00,CLR,,0.00,WeatherDisplay:10.37,2013-04-20 10:06:00,
2013-04-20 06:11:00,28.2,1.4,29.77,WNW,292,6.5,6.5,31,0.00,CLR,,0.00,WeatherDisplay:10.37,2013-04-20 10:11:00,
2013-04-20 06:16:00,28.2,1.4,29.77,WNW,292,6.9,6.9,31,0.00,CLR,,0.00,WeatherDisplay:10.37,2013-04-20 10:16:00,
2013-04-20 06:21:00,28.0,1.2,29.77,WNW,292,6.9,6.9,31,0.00,CLR,,0.00,WeatherDisplay:10.37,2013-04-20 10:21:00,
2013-04-20 06:26:00,28.0,1.2,29.83,West,270,6.9,6.9,31,0.00,CLR,,0.00,WeatherDisplay:10.37,2013-04-20 10:26:00,
2013-04-20 06:31:00,28.0,1.2,29.83,WNW,292,6.9,6.9,31,0.00,CLR,,0.00,WeatherDisplay:10.37,2013-04-20 10:31:00,
2013-04-20 06:36:00,27.9,1.1,29.81,WNW,292,6.9,6.9,31,0.00,CLR,,0.00,WeatherDisplay:10.37,2013-04-20 10:36:00,
2013-04-20 06:41:00,27.9,1.1,29.81,WNW,292,6.9,6.9,31,0.00,CLR,,0.00,WeatherDisplay:10.37,2013-04-20 10:41:00,
2013-04-20 06:46:00,27.9,1.1,29.83,WNW,292,6.9,6.9,31,0.00,CLR,,0.00,WeatherDisplay:10.37,2013-04-20 10:46:00,
2013-04-20 06:51:00,27.9,1.1,29.83,NW,315,6.9,6.9,31,0.00,CLR,,0.00,WeatherDisplay:10.37,2013-04-20 10:51:00,
2013-04-20 06:56:00,27.5,0.8,29.84,NW,315,6.9,6.9,31,0.00,CLR,,0.00,WeatherDisplay:10.37,2013-04-20 10:56:00,
2013-04-20 07:01:00,27.7,0.9,29.85,WNW,292,6.9,6.9,31,0.00,CLR,,0.00,WeatherDisplay:10.37,2013-04-20 11:01:00,
2013-04-20 07:06:00,27.7,0.9,29.81,WNW,292,6.9,6.9,31,0.00,CLR,,0.00,WeatherDisplay:10.37,2013-04-20 11:06:00,
2013-04-20 07:11:00,27.7,0.9,29.81,WSW,247,5.1,5.1,31,0.00,CLR,,0.00,WeatherDisplay:10.37,2013-04-20 11:11:00,
2013-04-20 07:16:00,27.7,0.9,29.81,West,270,5.1,5.1,31,0.00,CLR,,0.00,WeatherDisplay:10.37,2013-04-20 11:16:00,
2013-04-20 07:21:00,27.7,0.9,29.83,NW,315,6.1,6.1,31,0.00,CLR,,0.00,WeatherDisplay:10.37,2013-04-20 11:21:00,
2013-04-20 07:26:00,27.7,0.9,29.83,WNW,292,6.1,6.1,31,0.00,CLR,,0.00,WeatherDisplay:10.37,2013-04-20 11:26:00,
2013-04-20 07:31:00,27.9,1.1,29.83,WNW,292,6.1,6.1,31,0.00,CLR,,0.00,WeatherDisplay:10.37,2013-04-20 11:31:00,
2013-04-20 07:36:00,29.1,2.2,29.84,WNW,292,8.1,8.1,31,0.00,CLR,,0.00,WeatherDisplay:10.37,2013-04-20 11:36:00,
2013-04-20 07:41:00,29.3,2.4,29.84,WNW,292,8.1,8.1,31,0.00,CLR,,0.00,WeatherDisplay:10.37,2013-04-20 11:41:00,
2013-04-20 07:46:00,29.8,2.8,29.85,WNW,292,8.1,8.1,31,0.00,CLR,,0.00,WeatherDisplay:10.37,2013-04-20 11:46:00,
2013-04-20 07:51:00,29.5,2.5,29.85,WNW,292,8.1,8.1,31,0.00,CLR,,0.00,WeatherDisplay:10.37,2013-04-20 11:51:00,
2013-04-20 07:56:00,29.3,2.4,29.86,WNW,292,8.1,8.1,31,0.00,CLR,,0.00,WeatherDisplay:10.37,2013-04-20 11:56:00,
2013-04-20 08:01:00,29.5,2.5,29.87,West,270,8.1,8.1,31,0.00,CLR,,0.00,WeatherDisplay:10.37,2013-04-20 12:01:00,
2013-04-20 08:06:00,29.1,2.2,29.86,WNW,292,8.1,8.1,31,0.00,CLR,,0.00,WeatherDisplay:10.37,2013-04-20 12:06:00,
2013-04-20 08:11:00,28.6,1.7,29.88,NE,45,6.9,6.9,31,0.00,CLR,,0.00,WeatherDisplay:10.37,2013-04-20 12:11:00,
2013-04-20 08:16:00,28.6,1.7,29.88,WNW,292,6.9,6.9,31,0.00,CLR,,0.00,WeatherDisplay:10.37,2013-04-20 12:16:00,
2013-04-20 08:21:00,28.6,1.0,29.88,NW,315,6.9,6.9,30,0.00,CLR,,0.00,WeatherDisplay:10.37,2013-04-20 12:21:00,
2013-04-20 08:26:00,28.6,1.7,29.87,WNW,292,6.9,6.9,31,0.00,CLR,,0.00,WeatherDisplay:10.37,2013-04-20 12:26:00,
2013-04-20 08:31:00,28.8,1.9,29.87,NW,315,6.9,6.9,31,0.00,CLR,,0.00,WeatherDisplay:10.37,2013-04-20 12:31:00,
2013-04-20 08:36:00,28.8,1.9,29.92,NW,315,6.9,6.9,31,0.00,CLR,,0.00,WeatherDisplay:10.37,2013-04-20 12:36:00,
2013-04-20 08:41:00,28.6,1.7,29.93,WNW,292,6.9,6.9,31,0.00,CLR,,0.00,WeatherDisplay:10.37,2013-04-20 12:41:00,
2013-04-20 08:46:00,28.9,1.3,29.87,SW,225,6.9,6.9,30,0.00,CLR,,0.00,WeatherDisplay:10.37,2013-04-20 12:46:00,
2013-04-20 08:51:00,30.0,3.0,29.88,NW,315,6.9,6.9,31,0.00,CLR,,0.00,WeatherDisplay:10.37,2013-04-20 12:51:00,
2013-04-20 08:56:00,30.0,3.0,29.89,WNW,292,6.9,6.9,31,0.00,CLR,,0.00,WeatherDisplay:10.37,2013-04-20 12:56:00,
2013-04-20 09:01:00,30.4,2.6,29.90,NNW,337,6.9,6.9,30,0.00,CLR,,0.00,WeatherDisplay:10.37,2013-04-20 13:01:00,